Index of /20260507/WXO-DD/model_gdps/15km/00/228
Name Last modified Size Description
Parent Directory -
20260507T00Z_MSC_GDPS_AbsoluteVorticity_IsbL-0200_LatLon0.15_PT228H.grib2 2026-05-07 04:48 1.5M
20260507T00Z_MSC_GDPS_AbsoluteVorticity_IsbL-0250_LatLon0.15_PT228H.grib2 2026-05-07 04:48 1.3M
20260507T00Z_MSC_GDPS_AbsoluteVorticity_IsbL-0500_LatLon0.15_PT228H.grib2 2026-05-07 04:48 1.5M
20260507T00Z_MSC_GDPS_AbsoluteVorticity_IsbL-0700_LatLon0.15_PT228H.grib2 2026-05-07 04:48 1.3M
20260507T00Z_MSC_GDPS_AbsoluteVorticity_IsbL-0850_LatLon0.15_PT228H.grib2 2026-05-07 04:48 1.6M
20260507T00Z_MSC_GDPS_AirTemp-Max_AGL-2m_LatLon0.15_PT228H.grib2 2026-05-07 04:48 742K
20260507T00Z_MSC_GDPS_AirTemp-Min_AGL-2m_LatLon0.15_PT228H.grib2 2026-05-07 04:48 788K
20260507T00Z_MSC_GDPS_AirTemp_AGL-120m_LatLon0.15_PT228H.grib2 2026-05-07 04:48 903K
20260507T00Z_MSC_GDPS_AirTemp_AGL-2m_LatLon0.15_PT228H.grib2 2026-05-07 04:48 1.0M
20260507T00Z_MSC_GDPS_AirTemp_AGL-40m_LatLon0.15_PT228H.grib2 2026-05-07 04:48 807K
20260507T00Z_MSC_GDPS_AirTemp_AGL-80m_LatLon0.15_PT228H.grib2 2026-05-07 04:48 913K
20260507T00Z_MSC_GDPS_AirTemp_IsbL-0001_LatLon0.15_PT228H.grib2 2026-05-07 04:48 671K
20260507T00Z_MSC_GDPS_AirTemp_IsbL-0005_LatLon0.15_PT228H.grib2 2026-05-07 04:48 539K
20260507T00Z_MSC_GDPS_AirTemp_IsbL-0010_LatLon0.15_PT228H.grib2 2026-05-07 04:48 693K
20260507T00Z_MSC_GDPS_AirTemp_IsbL-0020_LatLon0.15_PT228H.grib2 2026-05-07 04:48 718K
20260507T00Z_MSC_GDPS_AirTemp_IsbL-0030_LatLon0.15_PT228H.grib2 2026-05-07 04:48 836K
20260507T00Z_MSC_GDPS_AirTemp_IsbL-0050_LatLon0.15_PT228H.grib2 2026-05-07 04:48 881K
20260507T00Z_MSC_GDPS_AirTemp_IsbL-0100_LatLon0.15_PT228H.grib2 2026-05-07 04:48 963K
20260507T00Z_MSC_GDPS_AirTemp_IsbL-0150_LatLon0.15_PT228H.grib2 2026-05-07 04:48 970K
20260507T00Z_MSC_GDPS_AirTemp_IsbL-0175_LatLon0.15_PT228H.grib2 2026-05-07 04:48 961K
20260507T00Z_MSC_GDPS_AirTemp_IsbL-0200_LatLon0.15_PT228H.grib2 2026-05-07 04:48 1.0M
20260507T00Z_MSC_GDPS_AirTemp_IsbL-0225_LatLon0.15_PT228H.grib2 2026-05-07 04:48 1.0M
20260507T00Z_MSC_GDPS_AirTemp_IsbL-0250_LatLon0.15_PT228H.grib2 2026-05-07 04:48 1.0M
20260507T00Z_MSC_GDPS_AirTemp_IsbL-0275_LatLon0.15_PT228H.grib2 2026-05-07 04:48 1.0M
20260507T00Z_MSC_GDPS_AirTemp_IsbL-0300_LatLon0.15_PT228H.grib2 2026-05-07 04:48 941K
20260507T00Z_MSC_GDPS_AirTemp_IsbL-0350_LatLon0.15_PT228H.grib2 2026-05-07 04:48 930K
20260507T00Z_MSC_GDPS_AirTemp_IsbL-0400_LatLon0.15_PT228H.grib2 2026-05-07 04:48 943K
20260507T00Z_MSC_GDPS_AirTemp_IsbL-0450_LatLon0.15_PT228H.grib2 2026-05-07 04:48 967K
20260507T00Z_MSC_GDPS_AirTemp_IsbL-0500_LatLon0.15_PT228H.grib2 2026-05-07 04:48 1.0M
20260507T00Z_MSC_GDPS_AirTemp_IsbL-0550_LatLon0.15_PT228H.grib2 2026-05-07 04:48 1.0M
20260507T00Z_MSC_GDPS_AirTemp_IsbL-0600_LatLon0.15_PT228H.grib2 2026-05-07 04:48 894K
20260507T00Z_MSC_GDPS_AirTemp_IsbL-0650_LatLon0.15_PT228H.grib2 2026-05-07 04:48 926K
20260507T00Z_MSC_GDPS_AirTemp_IsbL-0700_LatLon0.15_PT228H.grib2 2026-05-07 04:48 961K
20260507T00Z_MSC_GDPS_AirTemp_IsbL-0750_LatLon0.15_PT228H.grib2 2026-05-07 04:48 1.0M
20260507T00Z_MSC_GDPS_AirTemp_IsbL-0800_LatLon0.15_PT228H.grib2 2026-05-07 04:48 1.1M
20260507T00Z_MSC_GDPS_AirTemp_IsbL-0850_LatLon0.15_PT228H.grib2 2026-05-07 04:48 1.1M
20260507T00Z_MSC_GDPS_AirTemp_IsbL-0875_LatLon0.15_PT228H.grib2 2026-05-07 04:48 1.2M
20260507T00Z_MSC_GDPS_AirTemp_IsbL-0900_LatLon0.15_PT228H.grib2 2026-05-07 04:48 1.2M
20260507T00Z_MSC_GDPS_AirTemp_IsbL-0925_LatLon0.15_PT228H.grib2 2026-05-07 04:48 1.1M
20260507T00Z_MSC_GDPS_AirTemp_IsbL-0950_LatLon0.15_PT228H.grib2 2026-05-07 04:48 1.1M
20260507T00Z_MSC_GDPS_AirTemp_IsbL-0970_LatLon0.15_PT228H.grib2 2026-05-07 04:48 1.2M
20260507T00Z_MSC_GDPS_AirTemp_IsbL-0985_LatLon0.15_PT228H.grib2 2026-05-07 04:48 1.1M
20260507T00Z_MSC_GDPS_AirTemp_IsbL-1000_LatLon0.15_PT228H.grib2 2026-05-07 04:48 1.1M
20260507T00Z_MSC_GDPS_AirTemp_IsbL-1015_LatLon0.15_PT228H.grib2 2026-05-07 04:48 1.1M
20260507T00Z_MSC_GDPS_Albedo_Sfc_LatLon0.15_PT228H.grib2 2026-05-07 04:48 238K
20260507T00Z_MSC_GDPS_CAPE_Sfc_LatLon0.15_PT228H.grib2 2026-05-07 04:48 3.9M
20260507T00Z_MSC_GDPS_CIN_Sfc_LatLon0.15_PT228H.grib2 2026-05-07 04:48 3.1M
20260507T00Z_MSC_GDPS_CloudWater_EAtm_LatLon0.15_PT228H.grib2 2026-05-07 04:48 547K
20260507T00Z_MSC_GDPS_ConvectivePrecip-Accum_Sfc_LatLon0.15_PT228H.grib2 2026-05-07 04:48 3.8M
20260507T00Z_MSC_GDPS_DewPointDepression_AGL-2m_LatLon0.15_PT228H.grib2 2026-05-07 04:48 758K
20260507T00Z_MSC_GDPS_DewPointDepression_IsbL-0010_LatLon0.15_PT228H.grib2 2026-05-07 04:48 89K
20260507T00Z_MSC_GDPS_DewPointDepression_IsbL-0020_LatLon0.15_PT228H.grib2 2026-05-07 04:48 87K
20260507T00Z_MSC_GDPS_DewPointDepression_IsbL-0030_LatLon0.15_PT228H.grib2 2026-05-07 04:48 100K
20260507T00Z_MSC_GDPS_DewPointDepression_IsbL-0050_LatLon0.15_PT228H.grib2 2026-05-07 04:48 371K
20260507T00Z_MSC_GDPS_DewPointDepression_IsbL-0100_LatLon0.15_PT228H.grib2 2026-05-07 04:48 389K
20260507T00Z_MSC_GDPS_DewPointDepression_IsbL-0150_LatLon0.15_PT228H.grib2 2026-05-07 04:48 505K
20260507T00Z_MSC_GDPS_DewPointDepression_IsbL-0175_LatLon0.15_PT228H.grib2 2026-05-07 04:48 605K
20260507T00Z_MSC_GDPS_DewPointDepression_IsbL-0200_LatLon0.15_PT228H.grib2 2026-05-07 04:48 695K
20260507T00Z_MSC_GDPS_DewPointDepression_IsbL-0225_LatLon0.15_PT228H.grib2 2026-05-07 04:48 779K
20260507T00Z_MSC_GDPS_DewPointDepression_IsbL-0250_LatLon0.15_PT228H.grib2 2026-05-07 04:48 849K
20260507T00Z_MSC_GDPS_DewPointDepression_IsbL-0275_LatLon0.15_PT228H.grib2 2026-05-07 04:48 869K
20260507T00Z_MSC_GDPS_DewPointDepression_IsbL-0300_LatLon0.15_PT228H.grib2 2026-05-07 04:48 918K
20260507T00Z_MSC_GDPS_DewPointDepression_IsbL-0350_LatLon0.15_PT228H.grib2 2026-05-07 04:48 949K
20260507T00Z_MSC_GDPS_DewPointDepression_IsbL-0400_LatLon0.15_PT228H.grib2 2026-05-07 04:48 1.0M
20260507T00Z_MSC_GDPS_DewPointDepression_IsbL-0450_LatLon0.15_PT228H.grib2 2026-05-07 04:48 1.0M
20260507T00Z_MSC_GDPS_DewPointDepression_IsbL-0500_LatLon0.15_PT228H.grib2 2026-05-07 04:48 1.0M
20260507T00Z_MSC_GDPS_DewPointDepression_IsbL-0550_LatLon0.15_PT228H.grib2 2026-05-07 04:48 1.0M
20260507T00Z_MSC_GDPS_DewPointDepression_IsbL-0600_LatLon0.15_PT228H.grib2 2026-05-07 04:48 1.1M
20260507T00Z_MSC_GDPS_DewPointDepression_IsbL-0650_LatLon0.15_PT228H.grib2 2026-05-07 04:48 1.1M
20260507T00Z_MSC_GDPS_DewPointDepression_IsbL-0700_LatLon0.15_PT228H.grib2 2026-05-07 04:48 1.1M
20260507T00Z_MSC_GDPS_DewPointDepression_IsbL-0750_LatLon0.15_PT228H.grib2 2026-05-07 04:48 1.1M
20260507T00Z_MSC_GDPS_DewPointDepression_IsbL-0800_LatLon0.15_PT228H.grib2 2026-05-07 04:48 1.2M
20260507T00Z_MSC_GDPS_DewPointDepression_IsbL-0850_LatLon0.15_PT228H.grib2 2026-05-07 04:48 1.2M
20260507T00Z_MSC_GDPS_DewPointDepression_IsbL-0875_LatLon0.15_PT228H.grib2 2026-05-07 04:48 1.1M
20260507T00Z_MSC_GDPS_DewPointDepression_IsbL-0900_LatLon0.15_PT228H.grib2 2026-05-07 04:48 1.0M
20260507T00Z_MSC_GDPS_DewPointDepression_IsbL-0925_LatLon0.15_PT228H.grib2 2026-05-07 04:48 1.0M
20260507T00Z_MSC_GDPS_DewPointDepression_IsbL-0950_LatLon0.15_PT228H.grib2 2026-05-07 04:48 1.0M
20260507T00Z_MSC_GDPS_DewPointDepression_IsbL-0970_LatLon0.15_PT228H.grib2 2026-05-07 04:48 1.0M
20260507T00Z_MSC_GDPS_DewPointDepression_IsbL-0985_LatLon0.15_PT228H.grib2 2026-05-07 04:48 1.0M
20260507T00Z_MSC_GDPS_DewPointDepression_IsbL-1000_LatLon0.15_PT228H.grib2 2026-05-07 04:48 968K
20260507T00Z_MSC_GDPS_DewPointDepression_IsbL-1015_LatLon0.15_PT228H.grib2 2026-05-07 04:48 911K
20260507T00Z_MSC_GDPS_DewPoint_AGL-2m_LatLon0.15_PT228H.grib2 2026-05-07 04:48 606K
20260507T00Z_MSC_GDPS_DownwardLongwaveRadiationFlux-Accum_Sfc_LatLon0.15_PT228H.grib2 2026-05-07 04:48 740K
20260507T00Z_MSC_GDPS_DownwardShortwaveRadiationFlux-Accum_NTAtm_LatLon0.15_PT228H.grib2 2026-05-07 04:48 258K
20260507T00Z_MSC_GDPS_DownwardShortwaveRadiationFlux-Accum_Sfc_LatLon0.15_PT228H.grib2 2026-05-07 04:48 906K
20260507T00Z_MSC_GDPS_FreezingRain-Accum12h_Sfc_LatLon0.15_PT228H.grib2 2026-05-07 04:48 94K
20260507T00Z_MSC_GDPS_FreezingRain-Accum24h_Sfc_LatLon0.15_PT228H.grib2 2026-05-07 04:48 157K
20260507T00Z_MSC_GDPS_FreezingRain-Accum6h_Sfc_LatLon0.15_PT228H.grib2 2026-05-07 04:48 72K
20260507T00Z_MSC_GDPS_FreezingRain-Accum_Sfc_LatLon0.15_PT228H.grib2 2026-05-07 04:48 482K
20260507T00Z_MSC_GDPS_GeopotentialHeight_IsbL-0001_LatLon0.15_PT228H.grib2 2026-05-07 04:48 455K
20260507T00Z_MSC_GDPS_GeopotentialHeight_IsbL-0005_LatLon0.15_PT228H.grib2 2026-05-07 04:48 364K
20260507T00Z_MSC_GDPS_GeopotentialHeight_IsbL-0010_LatLon0.15_PT228H.grib2 2026-05-07 04:48 487K
20260507T00Z_MSC_GDPS_GeopotentialHeight_IsbL-0020_LatLon0.15_PT228H.grib2 2026-05-07 04:48 464K
20260507T00Z_MSC_GDPS_GeopotentialHeight_IsbL-0030_LatLon0.15_PT228H.grib2 2026-05-07 04:48 410K
20260507T00Z_MSC_GDPS_GeopotentialHeight_IsbL-0050_LatLon0.15_PT228H.grib2 2026-05-07 04:48 564K
20260507T00Z_MSC_GDPS_GeopotentialHeight_IsbL-0100_LatLon0.15_PT228H.grib2 2026-05-07 04:48 613K
20260507T00Z_MSC_GDPS_GeopotentialHeight_IsbL-0150_LatLon0.15_PT228H.grib2 2026-05-07 04:48 637K
20260507T00Z_MSC_GDPS_GeopotentialHeight_IsbL-0175_LatLon0.15_PT228H.grib2 2026-05-07 04:48 643K
20260507T00Z_MSC_GDPS_GeopotentialHeight_IsbL-0200_LatLon0.15_PT228H.grib2 2026-05-07 04:48 649K
20260507T00Z_MSC_GDPS_GeopotentialHeight_IsbL-0225_LatLon0.15_PT228H.grib2 2026-05-07 04:48 653K
20260507T00Z_MSC_GDPS_GeopotentialHeight_IsbL-0250_LatLon0.15_PT228H.grib2 2026-05-07 04:48 652K
20260507T00Z_MSC_GDPS_GeopotentialHeight_IsbL-0275_LatLon0.15_PT228H.grib2 2026-05-07 04:48 651K
20260507T00Z_MSC_GDPS_GeopotentialHeight_IsbL-0300_LatLon0.15_PT228H.grib2 2026-05-07 04:48 648K
20260507T00Z_MSC_GDPS_GeopotentialHeight_IsbL-0350_LatLon0.15_PT228H.grib2 2026-05-07 04:48 635K
20260507T00Z_MSC_GDPS_GeopotentialHeight_IsbL-0400_LatLon0.15_PT228H.grib2 2026-05-07 04:48 627K
20260507T00Z_MSC_GDPS_GeopotentialHeight_IsbL-0450_LatLon0.15_PT228H.grib2 2026-05-07 04:48 615K
20260507T00Z_MSC_GDPS_GeopotentialHeight_IsbL-0500_LatLon0.15_PT228H.grib2 2026-05-07 04:48 538K
20260507T00Z_MSC_GDPS_GeopotentialHeight_IsbL-0550_LatLon0.15_PT228H.grib2 2026-05-07 04:48 531K
20260507T00Z_MSC_GDPS_GeopotentialHeight_IsbL-0600_LatLon0.15_PT228H.grib2 2026-05-07 04:48 528K
20260507T00Z_MSC_GDPS_GeopotentialHeight_IsbL-0650_LatLon0.15_PT228H.grib2 2026-05-07 04:48 698K
20260507T00Z_MSC_GDPS_GeopotentialHeight_IsbL-0700_LatLon0.15_PT228H.grib2 2026-05-07 04:48 700K
20260507T00Z_MSC_GDPS_GeopotentialHeight_IsbL-0750_LatLon0.15_PT228H.grib2 2026-05-07 04:48 703K
20260507T00Z_MSC_GDPS_GeopotentialHeight_IsbL-0800_LatLon0.15_PT228H.grib2 2026-05-07 04:48 712K
20260507T00Z_MSC_GDPS_GeopotentialHeight_IsbL-0850_LatLon0.15_PT228H.grib2 2026-05-07 04:48 722K
20260507T00Z_MSC_GDPS_GeopotentialHeight_IsbL-0875_LatLon0.15_PT228H.grib2 2026-05-07 04:48 721K
20260507T00Z_MSC_GDPS_GeopotentialHeight_IsbL-0900_LatLon0.15_PT228H.grib2 2026-05-07 04:48 729K
20260507T00Z_MSC_GDPS_GeopotentialHeight_IsbL-0925_LatLon0.15_PT228H.grib2 2026-05-07 04:48 735K
20260507T00Z_MSC_GDPS_GeopotentialHeight_IsbL-0950_LatLon0.15_PT228H.grib2 2026-05-07 04:48 742K
20260507T00Z_MSC_GDPS_GeopotentialHeight_IsbL-0970_LatLon0.15_PT228H.grib2 2026-05-07 04:48 752K
20260507T00Z_MSC_GDPS_GeopotentialHeight_IsbL-0985_LatLon0.15_PT228H.grib2 2026-05-07 04:48 767K
20260507T00Z_MSC_GDPS_GeopotentialHeight_IsbL-1000_LatLon0.15_PT228H.grib2 2026-05-07 04:48 789K
20260507T00Z_MSC_GDPS_GeopotentialHeight_IsbL-1015_LatLon0.15_PT228H.grib2 2026-05-07 04:48 812K
20260507T00Z_MSC_GDPS_IcePellets-Accum12h_Sfc_LatLon0.15_PT228H.grib2 2026-05-07 04:48 29K
20260507T00Z_MSC_GDPS_IcePellets-Accum24h_Sfc_LatLon0.15_PT228H.grib2 2026-05-07 04:48 44K
20260507T00Z_MSC_GDPS_IcePellets-Accum6h_Sfc_LatLon0.15_PT228H.grib2 2026-05-07 04:48 20K
20260507T00Z_MSC_GDPS_IcePellets-Accum_Sfc_LatLon0.15_PT228H.grib2 2026-05-07 04:48 245K
20260507T00Z_MSC_GDPS_KIndex_Sfc_LatLon0.15_PT228H.grib2 2026-05-07 04:48 6.5M
20260507T00Z_MSC_GDPS_LatentHeatNetFlux_Sfc_LatLon0.15_PT228H.grib2 2026-05-07 04:48 557K
20260507T00Z_MSC_GDPS_LiftedIndex-MU-VT_IsbL-0500_LatLon0.15_PT228H.grib2 2026-05-07 04:48 5.4M
20260507T00Z_MSC_GDPS_NetLongwaveRadiationFlux-Accum_Sfc_LatLon0.15_PT228H.grib2 2026-05-07 04:48 936K
20260507T00Z_MSC_GDPS_NetShortwaveRadiationFlux-Accum_Sfc_LatLon0.15_PT228H.grib2 2026-05-07 04:48 905K
20260507T00Z_MSC_GDPS_O3MixingRatio_Sfc_LatLon0.15_PT228H.grib2 2026-05-07 04:56 2.2M
20260507T00Z_MSC_GDPS_O3_EAtm_LatLon0.15_PT228H.grib2 2026-05-07 04:56 2.4M
20260507T00Z_MSC_GDPS_PlanetaryBoundaryLayerHeight_Sfc_LatLon0.15_PT228H.grib2 2026-05-07 04:48 2.5M
20260507T00Z_MSC_GDPS_Precip-Accum12h_Sfc_LatLon0.15_PT228H.grib2 2026-05-07 04:48 4.1M
20260507T00Z_MSC_GDPS_Precip-Accum24h_Sfc_LatLon0.15_PT228H.grib2 2026-05-07 04:48 4.7M
20260507T00Z_MSC_GDPS_Precip-Accum6h_Sfc_LatLon0.15_PT228H.grib2 2026-05-07 04:48 4.0M
20260507T00Z_MSC_GDPS_Precip-Accum_Sfc_LatLon0.15_PT228H.grib2 2026-05-07 04:48 5.2M
20260507T00Z_MSC_GDPS_PrecipRate_Sfc_LatLon0.15_PT228H.grib2 2026-05-07 04:48 3.2M
20260507T00Z_MSC_GDPS_PrecipType-Instant_Sfc_LatLon0.15_PT228H.grib2 2026-05-07 04:48 1.7M
20260507T00Z_MSC_GDPS_Pressure_MSL_LatLon0.15_PT228H.grib2 2026-05-07 04:48 824K
20260507T00Z_MSC_GDPS_Pressure_Sfc_LatLon0.15_PT228H.grib2 2026-05-07 04:48 1.1M
20260507T00Z_MSC_GDPS_RadiativeTemp_Sfc_LatLon0.15_PT228H.grib2 2026-05-07 04:48 497K
20260507T00Z_MSC_GDPS_Rain-Accum12h_Sfc_LatLon0.15_PT228H.grib2 2026-05-07 04:48 2.8M
20260507T00Z_MSC_GDPS_Rain-Accum24h_Sfc_LatLon0.15_PT228H.grib2 2026-05-07 04:48 3.3M
20260507T00Z_MSC_GDPS_Rain-Accum6h_Sfc_LatLon0.15_PT228H.grib2 2026-05-07 04:48 2.6M
20260507T00Z_MSC_GDPS_Rain-Accum_Sfc_LatLon0.15_PT228H.grib2 2026-05-07 04:48 4.2M
20260507T00Z_MSC_GDPS_RelativeHumidity_AGL-2m_LatLon0.15_PT228H.grib2 2026-05-07 04:48 1.1M
20260507T00Z_MSC_GDPS_RelativeHumidity_IsbL-0010_LatLon0.15_PT228H.grib2 2026-05-07 04:48 150K
20260507T00Z_MSC_GDPS_RelativeHumidity_IsbL-0020_LatLon0.15_PT228H.grib2 2026-05-07 04:48 118K
20260507T00Z_MSC_GDPS_RelativeHumidity_IsbL-0030_LatLon0.15_PT228H.grib2 2026-05-07 04:48 126K
20260507T00Z_MSC_GDPS_RelativeHumidity_IsbL-0050_LatLon0.15_PT228H.grib2 2026-05-07 04:48 255K
20260507T00Z_MSC_GDPS_RelativeHumidity_IsbL-0100_LatLon0.15_PT228H.grib2 2026-05-07 04:48 490K
20260507T00Z_MSC_GDPS_RelativeHumidity_IsbL-0150_LatLon0.15_PT228H.grib2 2026-05-07 04:48 679K
20260507T00Z_MSC_GDPS_RelativeHumidity_IsbL-0175_LatLon0.15_PT228H.grib2 2026-05-07 04:48 815K
20260507T00Z_MSC_GDPS_RelativeHumidity_IsbL-0200_LatLon0.15_PT228H.grib2 2026-05-07 04:48 723K
20260507T00Z_MSC_GDPS_RelativeHumidity_IsbL-0225_LatLon0.15_PT228H.grib2 2026-05-07 04:48 798K
20260507T00Z_MSC_GDPS_RelativeHumidity_IsbL-0250_LatLon0.15_PT228H.grib2 2026-05-07 04:48 869K
20260507T00Z_MSC_GDPS_RelativeHumidity_IsbL-0275_LatLon0.15_PT228H.grib2 2026-05-07 04:48 885K
20260507T00Z_MSC_GDPS_RelativeHumidity_IsbL-0300_LatLon0.15_PT228H.grib2 2026-05-07 04:48 928K
20260507T00Z_MSC_GDPS_RelativeHumidity_IsbL-0350_LatLon0.15_PT228H.grib2 2026-05-07 04:48 948K
20260507T00Z_MSC_GDPS_RelativeHumidity_IsbL-0400_LatLon0.15_PT228H.grib2 2026-05-07 04:48 972K
20260507T00Z_MSC_GDPS_RelativeHumidity_IsbL-0450_LatLon0.15_PT228H.grib2 2026-05-07 04:48 1.0M
20260507T00Z_MSC_GDPS_RelativeHumidity_IsbL-0500_LatLon0.15_PT228H.grib2 2026-05-07 04:48 1.0M
20260507T00Z_MSC_GDPS_RelativeHumidity_IsbL-0550_LatLon0.15_PT228H.grib2 2026-05-07 04:48 1.0M
20260507T00Z_MSC_GDPS_RelativeHumidity_IsbL-0600_LatLon0.15_PT228H.grib2 2026-05-07 04:48 1.0M
20260507T00Z_MSC_GDPS_RelativeHumidity_IsbL-0650_LatLon0.15_PT228H.grib2 2026-05-07 04:48 1.1M
20260507T00Z_MSC_GDPS_RelativeHumidity_IsbL-0700_LatLon0.15_PT228H.grib2 2026-05-07 04:48 1.1M
20260507T00Z_MSC_GDPS_RelativeHumidity_IsbL-0750_LatLon0.15_PT228H.grib2 2026-05-07 04:48 1.1M
20260507T00Z_MSC_GDPS_RelativeHumidity_IsbL-0800_LatLon0.15_PT228H.grib2 2026-05-07 04:48 1.2M
20260507T00Z_MSC_GDPS_RelativeHumidity_IsbL-0850_LatLon0.15_PT228H.grib2 2026-05-07 04:48 1.3M
20260507T00Z_MSC_GDPS_RelativeHumidity_IsbL-0875_LatLon0.15_PT228H.grib2 2026-05-07 04:48 1.3M
20260507T00Z_MSC_GDPS_RelativeHumidity_IsbL-0900_LatLon0.15_PT228H.grib2 2026-05-07 04:48 1.2M
20260507T00Z_MSC_GDPS_RelativeHumidity_IsbL-0925_LatLon0.15_PT228H.grib2 2026-05-07 04:48 1.2M
20260507T00Z_MSC_GDPS_RelativeHumidity_IsbL-0950_LatLon0.15_PT228H.grib2 2026-05-07 04:48 1.2M
20260507T00Z_MSC_GDPS_RelativeHumidity_IsbL-0970_LatLon0.15_PT228H.grib2 2026-05-07 04:48 1.2M
20260507T00Z_MSC_GDPS_RelativeHumidity_IsbL-0985_LatLon0.15_PT228H.grib2 2026-05-07 04:48 1.2M
20260507T00Z_MSC_GDPS_RelativeHumidity_IsbL-1000_LatLon0.15_PT228H.grib2 2026-05-07 04:48 1.1M
20260507T00Z_MSC_GDPS_RelativeHumidity_IsbL-1015_LatLon0.15_PT228H.grib2 2026-05-07 04:48 1.0M
20260507T00Z_MSC_GDPS_RelativeVorticity_IsbL-0200_LatLon0.15_PT228H.grib2 2026-05-07 04:48 1.5M
20260507T00Z_MSC_GDPS_RelativeVorticity_IsbL-0250_LatLon0.15_PT228H.grib2 2026-05-07 04:48 1.3M
20260507T00Z_MSC_GDPS_RelativeVorticity_IsbL-0500_LatLon0.15_PT228H.grib2 2026-05-07 04:48 1.5M
20260507T00Z_MSC_GDPS_RelativeVorticity_IsbL-0700_LatLon0.15_PT228H.grib2 2026-05-07 04:48 1.6M
20260507T00Z_MSC_GDPS_RelativeVorticity_IsbL-0850_LatLon0.15_PT228H.grib2 2026-05-07 04:48 1.6M
20260507T00Z_MSC_GDPS_Runoff-Accum_Sfc_LatLon0.15_PT228H.grib2 2026-05-07 04:48 142K
20260507T00Z_MSC_GDPS_SensibleHeatNetFlux_Sfc_LatLon0.15_PT228H.grib2 2026-05-07 04:48 485K
20260507T00Z_MSC_GDPS_ShowalterIndex_IsbL-0500_LatLon0.15_PT228H.grib2 2026-05-07 04:48 6.2M
20260507T00Z_MSC_GDPS_Snow-Accum12h_Sfc_LatLon0.15_PT228H.grib2 2026-05-07 04:48 1.6M
20260507T00Z_MSC_GDPS_Snow-Accum24h_Sfc_LatLon0.15_PT228H.grib2 2026-05-07 04:48 1.8M
20260507T00Z_MSC_GDPS_Snow-Accum6h_Sfc_LatLon0.15_PT228H.grib2 2026-05-07 04:48 1.5M
20260507T00Z_MSC_GDPS_Snow-Accum_Sfc_LatLon0.15_PT228H.grib2 2026-05-07 04:48 2.2M
20260507T00Z_MSC_GDPS_SnowDensity_Sfc_LatLon0.15_PT228H.grib2 2026-05-07 04:48 257K
20260507T00Z_MSC_GDPS_SnowDepth_Sfc_LatLon0.15_PT228H.grib2 2026-05-07 04:48 1.7M
20260507T00Z_MSC_GDPS_SoilTemp_DBS-0to10cm_LatLon0.15_PT228H.grib2 2026-05-07 04:48 519K
20260507T00Z_MSC_GDPS_SoilTemp_Sfc_LatLon0.15_PT228H.grib2 2026-05-07 04:48 592K
20260507T00Z_MSC_GDPS_SoilVolumetricIceContent_Sfc_LatLon0.15_PT228H.grib2 2026-05-07 04:48 166K
20260507T00Z_MSC_GDPS_SoilVolumetricWaterContent_DBS-0to10cm_LatLon0.15_PT228H.grib2 2026-05-07 04:48 607K
20260507T00Z_MSC_GDPS_SoilVolumetricWaterContent_DBS-0to1cm_LatLon0.15_PT228H.grib2 2026-05-07 04:48 646K
20260507T00Z_MSC_GDPS_SpecificHumidity_AGL-120m_LatLon0.15_PT228H.grib2 2026-05-07 04:48 1.1M
20260507T00Z_MSC_GDPS_SpecificHumidity_AGL-2m_LatLon0.15_PT228H.grib2 2026-05-07 04:48 1.3M
20260507T00Z_MSC_GDPS_SpecificHumidity_AGL-40m_LatLon0.15_PT228H.grib2 2026-05-07 04:48 1.1M
20260507T00Z_MSC_GDPS_SpecificHumidity_AGL-80m_LatLon0.15_PT228H.grib2 2026-05-07 04:48 1.1M
20260507T00Z_MSC_GDPS_SpecificHumidity_IsbL-0001_LatLon0.15_PT228H.grib2 2026-05-07 04:48 1.1M
20260507T00Z_MSC_GDPS_SpecificHumidity_IsbL-0005_LatLon0.15_PT228H.grib2 2026-05-07 04:48 1.3M
20260507T00Z_MSC_GDPS_SpecificHumidity_IsbL-0010_LatLon0.15_PT228H.grib2 2026-05-07 04:48 1.1M
20260507T00Z_MSC_GDPS_SpecificHumidity_IsbL-0020_LatLon0.15_PT228H.grib2 2026-05-07 04:48 1.1M
20260507T00Z_MSC_GDPS_SpecificHumidity_IsbL-0030_LatLon0.15_PT228H.grib2 2026-05-07 04:48 1.1M
20260507T00Z_MSC_GDPS_SpecificHumidity_IsbL-0050_LatLon0.15_PT228H.grib2 2026-05-07 04:48 1.4M
20260507T00Z_MSC_GDPS_SpecificHumidity_IsbL-0100_LatLon0.15_PT228H.grib2 2026-05-07 04:48 1.2M
20260507T00Z_MSC_GDPS_SpecificHumidity_IsbL-0150_LatLon0.15_PT228H.grib2 2026-05-07 04:48 1.3M
20260507T00Z_MSC_GDPS_SpecificHumidity_IsbL-0175_LatLon0.15_PT228H.grib2 2026-05-07 04:48 1.3M
20260507T00Z_MSC_GDPS_SpecificHumidity_IsbL-0200_LatLon0.15_PT228H.grib2 2026-05-07 04:48 1.3M
20260507T00Z_MSC_GDPS_SpecificHumidity_IsbL-0225_LatLon0.15_PT228H.grib2 2026-05-07 04:48 1.3M
20260507T00Z_MSC_GDPS_SpecificHumidity_IsbL-0250_LatLon0.15_PT228H.grib2 2026-05-07 04:48 1.2M
20260507T00Z_MSC_GDPS_SpecificHumidity_IsbL-0275_LatLon0.15_PT228H.grib2 2026-05-07 04:48 1.4M
20260507T00Z_MSC_GDPS_SpecificHumidity_IsbL-0300_LatLon0.15_PT228H.grib2 2026-05-07 04:48 1.2M
20260507T00Z_MSC_GDPS_SpecificHumidity_IsbL-0350_LatLon0.15_PT228H.grib2 2026-05-07 04:48 1.2M
20260507T00Z_MSC_GDPS_SpecificHumidity_IsbL-0400_LatLon0.15_PT228H.grib2 2026-05-07 04:48 1.5M
20260507T00Z_MSC_GDPS_SpecificHumidity_IsbL-0450_LatLon0.15_PT228H.grib2 2026-05-07 04:48 1.3M
20260507T00Z_MSC_GDPS_SpecificHumidity_IsbL-0500_LatLon0.15_PT228H.grib2 2026-05-07 04:48 1.5M
20260507T00Z_MSC_GDPS_SpecificHumidity_IsbL-0550_LatLon0.15_PT228H.grib2 2026-05-07 04:48 1.6M
20260507T00Z_MSC_GDPS_SpecificHumidity_IsbL-0600_LatLon0.15_PT228H.grib2 2026-05-07 04:48 1.5M
20260507T00Z_MSC_GDPS_SpecificHumidity_IsbL-0650_LatLon0.15_PT228H.grib2 2026-05-07 04:48 1.6M
20260507T00Z_MSC_GDPS_SpecificHumidity_IsbL-0700_LatLon0.15_PT228H.grib2 2026-05-07 04:48 1.7M
20260507T00Z_MSC_GDPS_SpecificHumidity_IsbL-0750_LatLon0.15_PT228H.grib2 2026-05-07 04:48 1.8M
20260507T00Z_MSC_GDPS_SpecificHumidity_IsbL-0800_LatLon0.15_PT228H.grib2 2026-05-07 04:48 1.9M
20260507T00Z_MSC_GDPS_SpecificHumidity_IsbL-0850_LatLon0.15_PT228H.grib2 2026-05-07 04:48 2.0M
20260507T00Z_MSC_GDPS_SpecificHumidity_IsbL-0875_LatLon0.15_PT228H.grib2 2026-05-07 04:48 2.0M
20260507T00Z_MSC_GDPS_SpecificHumidity_IsbL-0900_LatLon0.15_PT228H.grib2 2026-05-07 04:48 2.0M
20260507T00Z_MSC_GDPS_SpecificHumidity_IsbL-0925_LatLon0.15_PT228H.grib2 2026-05-07 04:48 1.6M
20260507T00Z_MSC_GDPS_SpecificHumidity_IsbL-0950_LatLon0.15_PT228H.grib2 2026-05-07 04:48 1.6M
20260507T00Z_MSC_GDPS_SpecificHumidity_IsbL-0970_LatLon0.15_PT228H.grib2 2026-05-07 04:48 1.6M
20260507T00Z_MSC_GDPS_SpecificHumidity_IsbL-0985_LatLon0.15_PT228H.grib2 2026-05-07 04:48 1.6M
20260507T00Z_MSC_GDPS_SpecificHumidity_IsbL-1000_LatLon0.15_PT228H.grib2 2026-05-07 04:48 1.6M
20260507T00Z_MSC_GDPS_SpecificHumidity_IsbL-1015_LatLon0.15_PT228H.grib2 2026-05-07 04:48 1.5M
20260507T00Z_MSC_GDPS_SpecificHumidity_Sfc_LatLon0.15_PT228H.grib2 2026-05-07 04:48 691K
20260507T00Z_MSC_GDPS_Thickness_IsbL-0850to0700_LatLon0.15_PT228H.grib2 2026-05-07 04:48 470K
20260507T00Z_MSC_GDPS_Thickness_IsbL-1000to0500_LatLon0.15_PT228H.grib2 2026-05-07 04:48 371K
20260507T00Z_MSC_GDPS_Thickness_IsbL-1000to0850_LatLon0.15_PT228H.grib2 2026-05-07 04:48 488K
20260507T00Z_MSC_GDPS_TotalCloudCover_Sfc_LatLon0.15_PT228H.grib2 2026-05-07 04:48 858K
20260507T00Z_MSC_GDPS_TotalTotalsIndex_Sfc_LatLon0.15_PT228H.grib2 2026-05-07 04:48 6.2M
20260507T00Z_MSC_GDPS_UVIndex-ClearSky_Sfc_LatLon0.15_PT228H.grib2 2026-05-07 04:56 1.0M
20260507T00Z_MSC_GDPS_UVIndex_Sfc_LatLon0.15_PT228H.grib2 2026-05-07 04:56 1.5M
20260507T00Z_MSC_GDPS_UpwardLongwaveRadiationFlux_NTAtm_LatLon0.15_PT228H.grib2 2026-05-07 04:48 850K
20260507T00Z_MSC_GDPS_VerticalVelocity_IsbL-0200_LatLon0.15_PT228H.grib2 2026-05-07 04:48 1.2M
20260507T00Z_MSC_GDPS_VerticalVelocity_IsbL-0250_LatLon0.15_PT228H.grib2 2026-05-07 04:48 1.0M
20260507T00Z_MSC_GDPS_VerticalVelocity_IsbL-0500_LatLon0.15_PT228H.grib2 2026-05-07 04:48 1.0M
20260507T00Z_MSC_GDPS_VerticalVelocity_IsbL-0600_LatLon0.15_PT228H.grib2 2026-05-07 04:48 1.4M
20260507T00Z_MSC_GDPS_VerticalVelocity_IsbL-0700_LatLon0.15_PT228H.grib2 2026-05-07 04:48 1.4M
20260507T00Z_MSC_GDPS_VerticalVelocity_IsbL-0850_LatLon0.15_PT228H.grib2 2026-05-07 04:48 1.6M
20260507T00Z_MSC_GDPS_WindChill_Sfc_LatLon0.15_PT228H.grib2 2026-05-07 04:48 5.3M
20260507T00Z_MSC_GDPS_WindDir_AGL-10m_LatLon0.15_PT228H.grib2 2026-05-07 04:48 1.3M
20260507T00Z_MSC_GDPS_WindDir_AGL-120m_LatLon0.15_PT228H.grib2 2026-05-07 04:48 1.3M
20260507T00Z_MSC_GDPS_WindDir_AGL-40m_LatLon0.15_PT228H.grib2 2026-05-07 04:48 1.4M
20260507T00Z_MSC_GDPS_WindDir_AGL-80m_LatLon0.15_PT228H.grib2 2026-05-07 04:48 1.4M
20260507T00Z_MSC_GDPS_WindDir_IsbL-0001_LatLon0.15_PT228H.grib2 2026-05-07 04:48 632K
20260507T00Z_MSC_GDPS_WindDir_IsbL-0005_LatLon0.15_PT228H.grib2 2026-05-07 04:48 781K
20260507T00Z_MSC_GDPS_WindDir_IsbL-0010_LatLon0.15_PT228H.grib2 2026-05-07 04:48 814K
20260507T00Z_MSC_GDPS_WindDir_IsbL-0020_LatLon0.15_PT228H.grib2 2026-05-07 04:48 925K
20260507T00Z_MSC_GDPS_WindDir_IsbL-0030_LatLon0.15_PT228H.grib2 2026-05-07 04:48 966K
20260507T00Z_MSC_GDPS_WindDir_IsbL-0050_LatLon0.15_PT228H.grib2 2026-05-07 04:48 951K
20260507T00Z_MSC_GDPS_WindDir_IsbL-0100_LatLon0.15_PT228H.grib2 2026-05-07 04:48 1.0M
20260507T00Z_MSC_GDPS_WindDir_IsbL-0150_LatLon0.15_PT228H.grib2 2026-05-07 04:48 1.0M
20260507T00Z_MSC_GDPS_WindDir_IsbL-0175_LatLon0.15_PT228H.grib2 2026-05-07 04:48 1.1M
20260507T00Z_MSC_GDPS_WindDir_IsbL-0200_LatLon0.15_PT228H.grib2 2026-05-07 04:48 1.1M
20260507T00Z_MSC_GDPS_WindDir_IsbL-0225_LatLon0.15_PT228H.grib2 2026-05-07 04:48 1.1M
20260507T00Z_MSC_GDPS_WindDir_IsbL-0250_LatLon0.15_PT228H.grib2 2026-05-07 04:48 1.1M
20260507T00Z_MSC_GDPS_WindDir_IsbL-0275_LatLon0.15_PT228H.grib2 2026-05-07 04:48 1.2M
20260507T00Z_MSC_GDPS_WindDir_IsbL-0300_LatLon0.15_PT228H.grib2 2026-05-07 04:48 1.2M
20260507T00Z_MSC_GDPS_WindDir_IsbL-0350_LatLon0.15_PT228H.grib2 2026-05-07 04:48 1.2M
20260507T00Z_MSC_GDPS_WindDir_IsbL-0400_LatLon0.15_PT228H.grib2 2026-05-07 04:48 1.3M
20260507T00Z_MSC_GDPS_WindDir_IsbL-0450_LatLon0.15_PT228H.grib2 2026-05-07 04:48 1.3M
20260507T00Z_MSC_GDPS_WindDir_IsbL-0500_LatLon0.15_PT228H.grib2 2026-05-07 04:48 1.3M
20260507T00Z_MSC_GDPS_WindDir_IsbL-0550_LatLon0.15_PT228H.grib2 2026-05-07 04:48 1.4M
20260507T00Z_MSC_GDPS_WindDir_IsbL-0600_LatLon0.15_PT228H.grib2 2026-05-07 04:48 1.4M
20260507T00Z_MSC_GDPS_WindDir_IsbL-0650_LatLon0.15_PT228H.grib2 2026-05-07 04:48 1.5M
20260507T00Z_MSC_GDPS_WindDir_IsbL-0700_LatLon0.15_PT228H.grib2 2026-05-07 04:48 1.6M
20260507T00Z_MSC_GDPS_WindDir_IsbL-0750_LatLon0.15_PT228H.grib2 2026-05-07 04:48 1.7M
20260507T00Z_MSC_GDPS_WindDir_IsbL-0800_LatLon0.15_PT228H.grib2 2026-05-07 04:48 1.8M
20260507T00Z_MSC_GDPS_WindDir_IsbL-0850_LatLon0.15_PT228H.grib2 2026-05-07 04:48 1.9M
20260507T00Z_MSC_GDPS_WindDir_IsbL-0875_LatLon0.15_PT228H.grib2 2026-05-07 04:48 2.0M
20260507T00Z_MSC_GDPS_WindDir_IsbL-0900_LatLon0.15_PT228H.grib2 2026-05-07 04:48 2.0M
20260507T00Z_MSC_GDPS_WindDir_IsbL-0925_LatLon0.15_PT228H.grib2 2026-05-07 04:48 2.0M
20260507T00Z_MSC_GDPS_WindDir_IsbL-0950_LatLon0.15_PT228H.grib2 2026-05-07 04:48 2.0M
20260507T00Z_MSC_GDPS_WindDir_IsbL-0970_LatLon0.15_PT228H.grib2 2026-05-07 04:48 2.0M
20260507T00Z_MSC_GDPS_WindDir_IsbL-0985_LatLon0.15_PT228H.grib2 2026-05-07 04:48 2.0M
20260507T00Z_MSC_GDPS_WindDir_IsbL-1000_LatLon0.15_PT228H.grib2 2026-05-07 04:48 2.0M
20260507T00Z_MSC_GDPS_WindDir_IsbL-1015_LatLon0.15_PT228H.grib2 2026-05-07 04:48 2.0M
20260507T00Z_MSC_GDPS_WindGust-Max_AGL-10m_LatLon0.15_PT228H.grib2 2026-05-07 04:48 2.2M
20260507T00Z_MSC_GDPS_WindGust-Min_AGL-10m_LatLon0.15_PT228H.grib2 2026-05-07 04:48 2.2M
20260507T00Z_MSC_GDPS_WindGust_AGL-10m_LatLon0.15_PT228H.grib2 2026-05-07 04:48 2.2M
20260507T00Z_MSC_GDPS_WindSpeed_AGL-10m_LatLon0.15_PT228H.grib2 2026-05-07 04:48 1.1M
20260507T00Z_MSC_GDPS_WindSpeed_AGL-120m_LatLon0.15_PT228H.grib2 2026-05-07 04:48 1.2M
20260507T00Z_MSC_GDPS_WindSpeed_AGL-40m_LatLon0.15_PT228H.grib2 2026-05-07 04:48 1.2M
20260507T00Z_MSC_GDPS_WindSpeed_AGL-80m_LatLon0.15_PT228H.grib2 2026-05-07 04:48 1.2M
20260507T00Z_MSC_GDPS_WindSpeed_IsbL-0001_LatLon0.15_PT228H.grib2 2026-05-07 04:48 656K
20260507T00Z_MSC_GDPS_WindSpeed_IsbL-0005_LatLon0.15_PT228H.grib2 2026-05-07 04:48 689K
20260507T00Z_MSC_GDPS_WindSpeed_IsbL-0010_LatLon0.15_PT228H.grib2 2026-05-07 04:48 622K
20260507T00Z_MSC_GDPS_WindSpeed_IsbL-0020_LatLon0.15_PT228H.grib2 2026-05-07 04:48 657K
20260507T00Z_MSC_GDPS_WindSpeed_IsbL-0030_LatLon0.15_PT228H.grib2 2026-05-07 04:48 858K
20260507T00Z_MSC_GDPS_WindSpeed_IsbL-0050_LatLon0.15_PT228H.grib2 2026-05-07 04:48 889K
20260507T00Z_MSC_GDPS_WindSpeed_IsbL-0100_LatLon0.15_PT228H.grib2 2026-05-07 04:48 1.1M
20260507T00Z_MSC_GDPS_WindSpeed_IsbL-0150_LatLon0.15_PT228H.grib2 2026-05-07 04:48 1.0M
20260507T00Z_MSC_GDPS_WindSpeed_IsbL-0175_LatLon0.15_PT228H.grib2 2026-05-07 04:48 1.0M
20260507T00Z_MSC_GDPS_WindSpeed_IsbL-0200_LatLon0.15_PT228H.grib2 2026-05-07 04:48 1.1M
20260507T00Z_MSC_GDPS_WindSpeed_IsbL-0225_LatLon0.15_PT228H.grib2 2026-05-07 04:48 1.1M
20260507T00Z_MSC_GDPS_WindSpeed_IsbL-0250_LatLon0.15_PT228H.grib2 2026-05-07 04:48 1.1M
20260507T00Z_MSC_GDPS_WindSpeed_IsbL-0275_LatLon0.15_PT228H.grib2 2026-05-07 04:48 1.1M
20260507T00Z_MSC_GDPS_WindSpeed_IsbL-0300_LatLon0.15_PT228H.grib2 2026-05-07 04:48 1.1M
20260507T00Z_MSC_GDPS_WindSpeed_IsbL-0350_LatLon0.15_PT228H.grib2 2026-05-07 04:48 1.1M
20260507T00Z_MSC_GDPS_WindSpeed_IsbL-0400_LatLon0.15_PT228H.grib2 2026-05-07 04:48 1.1M
20260507T00Z_MSC_GDPS_WindSpeed_IsbL-0450_LatLon0.15_PT228H.grib2 2026-05-07 04:48 1.1M
20260507T00Z_MSC_GDPS_WindSpeed_IsbL-0500_LatLon0.15_PT228H.grib2 2026-05-07 04:48 1.1M
20260507T00Z_MSC_GDPS_WindSpeed_IsbL-0550_LatLon0.15_PT228H.grib2 2026-05-07 04:48 1.4M
20260507T00Z_MSC_GDPS_WindSpeed_IsbL-0600_LatLon0.15_PT228H.grib2 2026-05-07 04:48 1.4M
20260507T00Z_MSC_GDPS_WindSpeed_IsbL-0650_LatLon0.15_PT228H.grib2 2026-05-07 04:48 1.5M
20260507T00Z_MSC_GDPS_WindSpeed_IsbL-0700_LatLon0.15_PT228H.grib2 2026-05-07 04:48 1.6M
20260507T00Z_MSC_GDPS_WindSpeed_IsbL-0750_LatLon0.15_PT228H.grib2 2026-05-07 04:48 1.7M
20260507T00Z_MSC_GDPS_WindSpeed_IsbL-0800_LatLon0.15_PT228H.grib2 2026-05-07 04:48 1.8M
20260507T00Z_MSC_GDPS_WindSpeed_IsbL-0850_LatLon0.15_PT228H.grib2 2026-05-07 04:48 1.8M
20260507T00Z_MSC_GDPS_WindSpeed_IsbL-0875_LatLon0.15_PT228H.grib2 2026-05-07 04:48 1.8M
20260507T00Z_MSC_GDPS_WindSpeed_IsbL-0900_LatLon0.15_PT228H.grib2 2026-05-07 04:48 1.8M
20260507T00Z_MSC_GDPS_WindSpeed_IsbL-0925_LatLon0.15_PT228H.grib2 2026-05-07 04:48 1.9M
20260507T00Z_MSC_GDPS_WindSpeed_IsbL-0950_LatLon0.15_PT228H.grib2 2026-05-07 04:48 1.9M
20260507T00Z_MSC_GDPS_WindSpeed_IsbL-0970_LatLon0.15_PT228H.grib2 2026-05-07 04:48 1.9M
20260507T00Z_MSC_GDPS_WindSpeed_IsbL-0985_LatLon0.15_PT228H.grib2 2026-05-07 04:48 1.9M
20260507T00Z_MSC_GDPS_WindSpeed_IsbL-1000_LatLon0.15_PT228H.grib2 2026-05-07 04:48 1.8M
20260507T00Z_MSC_GDPS_WindSpeed_IsbL-1015_LatLon0.15_PT228H.grib2 2026-05-07 04:48 1.8M
20260507T00Z_MSC_GDPS_WindU_AGL-10m_LatLon0.15_PT228H.grib2 2026-05-07 04:48 1.6M
20260507T00Z_MSC_GDPS_WindU_AGL-120m_LatLon0.15_PT228H.grib2 2026-05-07 04:48 1.0M
20260507T00Z_MSC_GDPS_WindU_AGL-40m_LatLon0.15_PT228H.grib2 2026-05-07 04:48 973K
20260507T00Z_MSC_GDPS_WindU_AGL-80m_LatLon0.15_PT228H.grib2 2026-05-07 04:48 1.0M
20260507T00Z_MSC_GDPS_WindU_IsbL-0001_LatLon0.15_PT228H.grib2 2026-05-07 04:48 601K
20260507T00Z_MSC_GDPS_WindU_IsbL-0005_LatLon0.15_PT228H.grib2 2026-05-07 04:48 689K
20260507T00Z_MSC_GDPS_WindU_IsbL-0010_LatLon0.15_PT228H.grib2 2026-05-07 04:48 696K
20260507T00Z_MSC_GDPS_WindU_IsbL-0020_LatLon0.15_PT228H.grib2 2026-05-07 04:48 723K
20260507T00Z_MSC_GDPS_WindU_IsbL-0030_LatLon0.15_PT228H.grib2 2026-05-07 04:48 728K
20260507T00Z_MSC_GDPS_WindU_IsbL-0050_LatLon0.15_PT228H.grib2 2026-05-07 04:48 752K
20260507T00Z_MSC_GDPS_WindU_IsbL-0100_LatLon0.15_PT228H.grib2 2026-05-07 04:48 920K
20260507T00Z_MSC_GDPS_WindU_IsbL-0150_LatLon0.15_PT228H.grib2 2026-05-07 04:48 1.0M
20260507T00Z_MSC_GDPS_WindU_IsbL-0175_LatLon0.15_PT228H.grib2 2026-05-07 04:48 1.0M
20260507T00Z_MSC_GDPS_WindU_IsbL-0200_LatLon0.15_PT228H.grib2 2026-05-07 04:48 844K
20260507T00Z_MSC_GDPS_WindU_IsbL-0225_LatLon0.15_PT228H.grib2 2026-05-07 04:48 856K
20260507T00Z_MSC_GDPS_WindU_IsbL-0250_LatLon0.15_PT228H.grib2 2026-05-07 04:48 857K
20260507T00Z_MSC_GDPS_WindU_IsbL-0275_LatLon0.15_PT228H.grib2 2026-05-07 04:48 883K
20260507T00Z_MSC_GDPS_WindU_IsbL-0300_LatLon0.15_PT228H.grib2 2026-05-07 04:48 877K
20260507T00Z_MSC_GDPS_WindU_IsbL-0350_LatLon0.15_PT228H.grib2 2026-05-07 04:48 894K
20260507T00Z_MSC_GDPS_WindU_IsbL-0400_LatLon0.15_PT228H.grib2 2026-05-07 04:48 894K
20260507T00Z_MSC_GDPS_WindU_IsbL-0450_LatLon0.15_PT228H.grib2 2026-05-07 04:48 1.1M
20260507T00Z_MSC_GDPS_WindU_IsbL-0500_LatLon0.15_PT228H.grib2 2026-05-07 04:48 1.1M
20260507T00Z_MSC_GDPS_WindU_IsbL-0550_LatLon0.15_PT228H.grib2 2026-05-07 04:48 1.1M
20260507T00Z_MSC_GDPS_WindU_IsbL-0600_LatLon0.15_PT228H.grib2 2026-05-07 04:48 1.2M
20260507T00Z_MSC_GDPS_WindU_IsbL-0650_LatLon0.15_PT228H.grib2 2026-05-07 04:48 1.2M
20260507T00Z_MSC_GDPS_WindU_IsbL-0700_LatLon0.15_PT228H.grib2 2026-05-07 04:48 1.2M
20260507T00Z_MSC_GDPS_WindU_IsbL-0750_LatLon0.15_PT228H.grib2 2026-05-07 04:48 1.3M
20260507T00Z_MSC_GDPS_WindU_IsbL-0800_LatLon0.15_PT228H.grib2 2026-05-07 04:48 1.4M
20260507T00Z_MSC_GDPS_WindU_IsbL-0850_LatLon0.15_PT228H.grib2 2026-05-07 04:48 1.4M
20260507T00Z_MSC_GDPS_WindU_IsbL-0875_LatLon0.15_PT228H.grib2 2026-05-07 04:48 1.5M
20260507T00Z_MSC_GDPS_WindU_IsbL-0900_LatLon0.15_PT228H.grib2 2026-05-07 04:48 1.5M
20260507T00Z_MSC_GDPS_WindU_IsbL-0925_LatLon0.15_PT228H.grib2 2026-05-07 04:48 1.5M
20260507T00Z_MSC_GDPS_WindU_IsbL-0950_LatLon0.15_PT228H.grib2 2026-05-07 04:48 1.4M
20260507T00Z_MSC_GDPS_WindU_IsbL-0970_LatLon0.15_PT228H.grib2 2026-05-07 04:48 1.4M
20260507T00Z_MSC_GDPS_WindU_IsbL-0985_LatLon0.15_PT228H.grib2 2026-05-07 04:48 1.4M
20260507T00Z_MSC_GDPS_WindU_IsbL-1000_LatLon0.15_PT228H.grib2 2026-05-07 04:48 1.7M
20260507T00Z_MSC_GDPS_WindU_IsbL-1015_LatLon0.15_PT228H.grib2 2026-05-07 04:48 1.7M
20260507T00Z_MSC_GDPS_WindV_AGL-10m_LatLon0.15_PT228H.grib2 2026-05-07 04:48 1.6M
20260507T00Z_MSC_GDPS_WindV_AGL-120m_LatLon0.15_PT228H.grib2 2026-05-07 04:48 970K
20260507T00Z_MSC_GDPS_WindV_AGL-40m_LatLon0.15_PT228H.grib2 2026-05-07 04:48 963K
20260507T00Z_MSC_GDPS_WindV_AGL-80m_LatLon0.15_PT228H.grib2 2026-05-07 04:48 969K
20260507T00Z_MSC_GDPS_WindV_IsbL-0001_LatLon0.15_PT228H.grib2 2026-05-07 04:48 727K
20260507T00Z_MSC_GDPS_WindV_IsbL-0005_LatLon0.15_PT228H.grib2 2026-05-07 04:48 866K
20260507T00Z_MSC_GDPS_WindV_IsbL-0010_LatLon0.15_PT228H.grib2 2026-05-07 04:48 884K
20260507T00Z_MSC_GDPS_WindV_IsbL-0020_LatLon0.15_PT228H.grib2 2026-05-07 04:48 927K
20260507T00Z_MSC_GDPS_WindV_IsbL-0030_LatLon0.15_PT228H.grib2 2026-05-07 04:48 929K
20260507T00Z_MSC_GDPS_WindV_IsbL-0050_LatLon0.15_PT228H.grib2 2026-05-07 04:48 969K
20260507T00Z_MSC_GDPS_WindV_IsbL-0100_LatLon0.15_PT228H.grib2 2026-05-07 04:48 1.1M
20260507T00Z_MSC_GDPS_WindV_IsbL-0150_LatLon0.15_PT228H.grib2 2026-05-07 04:48 929K
20260507T00Z_MSC_GDPS_WindV_IsbL-0175_LatLon0.15_PT228H.grib2 2026-05-07 04:48 1.0M
20260507T00Z_MSC_GDPS_WindV_IsbL-0200_LatLon0.15_PT228H.grib2 2026-05-07 04:48 1.0M
20260507T00Z_MSC_GDPS_WindV_IsbL-0225_LatLon0.15_PT228H.grib2 2026-05-07 04:48 853K
20260507T00Z_MSC_GDPS_WindV_IsbL-0250_LatLon0.15_PT228H.grib2 2026-05-07 04:48 854K
20260507T00Z_MSC_GDPS_WindV_IsbL-0275_LatLon0.15_PT228H.grib2 2026-05-07 04:48 876K
20260507T00Z_MSC_GDPS_WindV_IsbL-0300_LatLon0.15_PT228H.grib2 2026-05-07 04:48 865K
20260507T00Z_MSC_GDPS_WindV_IsbL-0350_LatLon0.15_PT228H.grib2 2026-05-07 04:48 880K
20260507T00Z_MSC_GDPS_WindV_IsbL-0400_LatLon0.15_PT228H.grib2 2026-05-07 04:48 1.1M
20260507T00Z_MSC_GDPS_WindV_IsbL-0450_LatLon0.15_PT228H.grib2 2026-05-07 04:48 1.1M
20260507T00Z_MSC_GDPS_WindV_IsbL-0500_LatLon0.15_PT228H.grib2 2026-05-07 04:48 1.1M
20260507T00Z_MSC_GDPS_WindV_IsbL-0550_LatLon0.15_PT228H.grib2 2026-05-07 04:48 1.1M
20260507T00Z_MSC_GDPS_WindV_IsbL-0600_LatLon0.15_PT228H.grib2 2026-05-07 04:48 1.1M
20260507T00Z_MSC_GDPS_WindV_IsbL-0650_LatLon0.15_PT228H.grib2 2026-05-07 04:48 1.1M
20260507T00Z_MSC_GDPS_WindV_IsbL-0700_LatLon0.15_PT228H.grib2 2026-05-07 04:48 1.2M
20260507T00Z_MSC_GDPS_WindV_IsbL-0750_LatLon0.15_PT228H.grib2 2026-05-07 04:48 1.2M
20260507T00Z_MSC_GDPS_WindV_IsbL-0800_LatLon0.15_PT228H.grib2 2026-05-07 04:48 1.3M
20260507T00Z_MSC_GDPS_WindV_IsbL-0850_LatLon0.15_PT228H.grib2 2026-05-07 04:48 1.4M
20260507T00Z_MSC_GDPS_WindV_IsbL-0875_LatLon0.15_PT228H.grib2 2026-05-07 04:48 1.5M
20260507T00Z_MSC_GDPS_WindV_IsbL-0900_LatLon0.15_PT228H.grib2 2026-05-07 04:48 1.5M
20260507T00Z_MSC_GDPS_WindV_IsbL-0925_LatLon0.15_PT228H.grib2 2026-05-07 04:48 1.5M
20260507T00Z_MSC_GDPS_WindV_IsbL-0950_LatLon0.15_PT228H.grib2 2026-05-07 04:48 1.4M
20260507T00Z_MSC_GDPS_WindV_IsbL-0970_LatLon0.15_PT228H.grib2 2026-05-07 04:48 1.4M
20260507T00Z_MSC_GDPS_WindV_IsbL-0985_LatLon0.15_PT228H.grib2 2026-05-07 04:48 1.4M
20260507T00Z_MSC_GDPS_WindV_IsbL-1000_LatLon0.15_PT228H.grib2 2026-05-07 04:48 1.7M
20260507T00Z_MSC_GDPS_WindV_IsbL-1015_LatLon0.15_PT228H.grib2 2026-05-07 04:48 1.6M